Regional Weather Roundup
Issued by NWS

Home | Current Version | Previous Version | Text Only | Print | Product List | Glossary On
Versions: 1 2 3 4 5 6 7 8 9 10 11 12 13 14 15 16 17 18 19 20 21 22 23 24 25 26 27 28 29 30 31 32 33 34 35 36 37 38 39 40 41 42 43 44 45 46 47 48 49 50
892
ASUS43 KLOT 230207
RWRIL

ILLINOIS REGIONAL WEATHER ROUNDUP
NATIONAL WEATHER SERVICE CHICAGO/ROMEOVILLE IL
900 PM CDT WED MAR 22 2017

NOTE: "FAIR" INDICATES FEW OR NO CLOUDS BELOW 12,000 FEET WITH NO
SIGNIFICANT WEATHER AND/OR OBSTRUCTIONS TO VISIBILITY.

* THESE STATIONS ARE NOT UNDER NWS QUALITY CONTROL. THEY ALSO MAY NOT
  REPORT WEATHER SUCH AS PRECIPITATION OR FOG.

ILZ001-002-007-009-015-016-024-230300-
NORTHWEST ILLINOIS

CITY           SKY/WX    TMP DP  RH WIND       PRES   REMARKS
MOLINE         CLOUDY    39  22  50 SE10      30.41F WCI  32
STERLING*      CLOUDY    36  22  56 E9        30.45S WCI  29
SAVANNA*       PTCLDY    35  21  56 SE8       30.43F WCI  29
$$

ILZ003-004-008-010-011-017-018-230300-
NORTH CENTRAL ILLINOIS

CITY           SKY/WX    TMP DP  RH WIND       PRES   REMARKS
ROCKFORD       PTCLDY    32  17  54 E10       30.48S WCI  24
FREEPORT*      CLOUDY    33  20  59 E8        30.46S WCI  26
ROCHELLE*      PTCLDY    31  18  59 E9        30.47F WCI  23
DE KALB*       PTCLDY    29  17  63 E8        30.48R WCI  21
PERU*          MOCLDY    34  19  55 E13       30.47S WCI  25
$$

ILZ005-006-012>014-019>023-230300-
NORTHEAST ILLINOIS

CITY           SKY/WX    TMP DP  RH WIND       PRES   REMARKS
CHICAGO-OHARE  MOCLDY    30  18  60 NE6       30.49S WCI  24
CHICAGO-MIDWAY MOCLDY    31  20  63 VRB7      30.50S WCI  24
AURORA         PTCLDY    30  17  58 NE7       30.49R WCI  23
LANSING*       PTCLDY    30  24  77 NE5       30.50S WCI  25
JOLIET*        CLOUDY    32  21  64 E8        30.49S WCI  25
WAUKEGAN       PTCLDY    26  18  71 CALM      30.49F
DUPAGE AIRPORT CLOUDY    28  19  69 NE6       30.48S WCI  22
KANKAKEE*      CLOUDY    30  22  70 NE9       30.49R WCI  22
WHEELING       PTCLDY    28  19  69 CALM      30.51F
MORRIS*        CLOUDY    31  20  65 E6        30.48S WCI  25
ROMEOVILLE*    CLOUDY    29  23  78 E7        30.49S WCI  22
NORTHERLY ISL    N/A     30  21  69 E7          N/A  WCI  23
$$

LMZ740>746-230300-
SOUTHERN LAKE MICHIGAN

STATION/POSITION SKY/WX   TEMP    WIND        PRES    VSBY  WAVE
                          AIR SEA DIR/SP/G                  HT/PER
                          (F)     (DEG/KT/KT) (MB)    (MI)  (FT/S)
HARRISON CRIB              31      70/  6/  8   N/A
BURNHAM HARBOR             30      60/  6/  7   N/A
CALUMET HARBOR             31      60/  7/  9 1032.2F
BURNS HARBOR               32      60/ 11/ 13 1033.2S
MICHIGAN CITY              31      70/  7/  9   N/A
$$

ILZ025>027-034>036-040-047-049-050-058-095>099-230300-
WEST-CENTRAL ILLINOIS

CITY           SKY/WX    TMP DP  RH WIND       PRES   REMARKS
QUINCY         CLOUDY    43  11  27 E13       30.36R
GALESBURG*     CLOUDY    37  22  54 E8        30.40R WCI  31
MACOMB*        CLOUDY    39  17  40 E13       30.42S WCI  32
JACKSONVILLE*  CLOUDY    39  15  37 E10       30.38F WCI  32
PITTSFIELD*    CLOUDY    44  13  29 E9        30.38S
$$

ILZ028>032-037-038-041>044-048-051>054-059>061-230300-
CENTRAL ILLINOIS

CITY           SKY/WX    TMP DP  RH WIND       PRES   REMARKS
PONTIAC        PTCLDY    34  24  67 E10       30.46F WCI  26
BLOOMINGTON    CLOUDY    32  23  69 E10       30.44S WCI  24
DECATUR        PTCLDY    36  19  50 E14       30.43S WCI  27
PEORIA         CLOUDY    37  20  50 E14       30.43F WCI  28
LACON*         CLOUDY    35  23  62 E5        30.45R WCI  31
LINCOLN*       CLOUDY    38  24  57 E8        30.43S WCI  32
SPRINGFIELD    CLOUDY    41  17  38 E13       30.40F
TAYLORVILLE    CLOUDY    39  17  41 E12G17    30.41S WCI  32
$$

ILZ033-039-045-046-055>057-062-063-230300-
EAST-CENTRAL ILLINOIS

CITY           SKY/WX    TMP DP  RH WIND       PRES   REMARKS
CHAMPAIGN      CLOUDY    35  21  56 E10       30.45S WCI  27
RANTOUL*       CLEAR     33  27  77 E7        30.46R WCI  27
MATTOON        PTCLDY    37  21  52 E10       30.42S WCI  30
PARIS*         CLEAR     34  24  66 E7        30.46S WCI  28
$$

ILZ079-100>102-230300-
SOUTHWEST ILLINOIS

CITY           SKY/WX    TMP DP  RH WIND       PRES   REMARKS
ALTON          CLEAR     43  19  39 E9        30.38S
BELLEVILLE     CLOUDY    44  22  41 E6        30.37S
CAHOKIA*       CLOUDY    45  17  32 E8        30.37S
SPARTA*        CLEAR     41  24  51 E7        30.38S
$$

ILZ064>066-069>071-074>076-080>082-084>086-088>090-092>094-230300-
SOUTH-CENTRAL ILLINOIS

CITY           SKY/WX    TMP DP  RH WIND       PRES   REMARKS
CARBONDALE     CLEAR     42  24  49 NE7       30.37S
CAIRO*         CLEAR     45  28  49 NE7       30.34S
EFFINGHAM*     PTCLDY   N/A N/A N/A NE8       30.44R
MARION         CLEAR     41  23  48 NE6       30.38S
MT. VERNON     CLEAR     38  23  55 NE6       30.40R WCI  33
CENTRALIA*     PTCLDY    43  25  49 NE8       30.38F
SALEM*         PTCLDY    43  20  40 NE3       30.40S
METROPOLIS*    CLEAR     46  22  38 NE5       30.37S
$$

ILZ067-068-072-073-078-083-087-091-230300-
SOUTHEAST ILLINOIS

CITY           SKY/WX    TMP DP  RH WIND       PRES   REMARKS
LAWRENCEVILLE  CLEAR     38  18  44 NE9       30.44R WCI  31
FLORA*         PTCLDY    42  24  50 E6        30.42R
FAIRFIELD*     CLEAR     42  22  45 NE5       30.41R
HARRISBURG*    CLEAR     43  23  44 NE6       30.40R
ROBINSON*      CLEAR     37  19  47 E8        30.46R WCI  31
CARMI*         CLEAR     40  22  48 NE7       30.41R
$$

ABBREVIATIONS USED IN REMARKS
   TC - TEMPERATURE IN CELSIUS
  WCI - WIND CHILL INDEX
   HX - HEAT INDEX
  VSB - VISIBILITY
$$





USA.gov is the U.S. government's official web portal to all federal, state and local government web resources and services.